When you browse on this site, cookies collect data to enhance your experience and personalize the content and advertising you see.
Visit our Privacy Policy to learn more. By continuing to use the site, you agree to this use of cookies and data.

Tiempo cada hora La Laja

Hoy, 23 Septiembre, Miércoles

Tiempo Temperatura Precipitaciones Viento Presión Humedad
00:00 +9°C° 0 mm 1 mps 755 mmHg 82%
01:00 +8°C° 0 mm 1 mps 755 mmHg 82%
02:00 +8°C° 0 mm 1 mps 754 mmHg 83%
03:00 +7°C° 0 mm 1 mps 754 mmHg 85%
04:00 +7°C° 0 mm 1 mps 754 mmHg 86%
05:00 +8°C° 0 mm 1 mps 754 mmHg 82%
06:00 +8°C° 0 mm 1 mps 754 mmHg 77%
07:00 +9°C° 0 mm 1 mps 754 mmHg 73%
08:00 +12°C° 0 mm 1 mps 754 mmHg 63%
09:00 +16°C° 0 mm 1 mps 754 mmHg 52%
10:00 +20°C° 0 mm 1 mps 753 mmHg 42%
11:00 +22°C° 0 mm 1 mps 753 mmHg 39%
12:00 +23°C° 0 mm 1 mps 753 mmHg 35%
13:00 +25°C° 0 mm 1 mps 753 mmHg 32%
14:00 +24°C° 0 mm 1 mps 753 mmHg 36%
15:00 +23°C° 0 mm 1 mps 752 mmHg 40%
16:00 +22°C° 0 mm 1 mps 752 mmHg 44%
17:00 +19°C° 0 mm 1 mps 752 mmHg 56%
18:00 +15°C° 0 mm 1 mps 753 mmHg 67%
19:00 +12°C° 0 mm 1 mps 753 mmHg 79%
20:00 +11°C° 0 mm 1 mps 753 mmHg 82%
21:00 +10°C° 0 mm 0 mps 753 mmHg 84%
22:00 +9°C° 0 mm 0 mps 753 mmHg 87%
23:00 +8°C° 0 mm 0 mps 753 mmHg 89%

Mañana, 24 Septiembre, Jueves

Tiempo Temperatura Precipitaciones Viento Presión Humedad
00:00 +9°C° 0 mm 1 mps 753 mmHg 90%
01:00 +8°C° 0 mm 1 mps 752 mmHg 91%
02:00 +8°C° 0 mm 1 mps 752 mmHg 91%
03:00 +7°C° 0 mm 1 mps 752 mmHg 92%
04:00 +7°C° 0 mm 1 mps 752 mmHg 92%
05:00 +8°C° 0 mm 1 mps 752 mmHg 88%
06:00 +8°C° 0 mm 0 mps 753 mmHg 84%
07:00 +9°C° 0 mm 0 mps 753 mmHg 80%
08:00 +13°C° 0 mm 1 mps 753 mmHg 69%
09:00 +16°C° 0 mm 1 mps 753 mmHg 58%
10:00 +21°C° 0 mm 1 mps 753 mmHg 47%
11:00 +22°C° 0 mm 1 mps 753 mmHg 43%
12:00 +23°C° 0 mm 1 mps 752 mmHg 39%
13:00 +25°C° 0 mm 1 mps 752 mmHg 35%
14:00 +24°C° 0 mm 1 mps 752 mmHg 38%
15:00 +23°C° 0 mm 1 mps 752 mmHg 42%
16:00 +22°C° 0 mm 1 mps 752 mmHg 45%
17:00 +19°C° 0 mm 1 mps 752 mmHg 58%
18:00 +15°C° 0 mm 1 mps 753 mmHg 71%
19:00 +12°C° 0 mm 1 mps 753 mmHg 84%
20:00 +11°C° 0 mm 1 mps 753 mmHg 87%
21:00 +10°C° 0 mm 1 mps 753 mmHg 89%
22:00 +9°C° 0 mm 0 mps 754 mmHg 92%
23:00 +8°C° 0 mm 0 mps 754 mmHg 92%

Pasado mañana, 25 Septiembre, Viernes

Tiempo Temperatura Precipitaciones Viento Presión Humedad
00:00 +8°C° 0 mm 0 mps 754 mmHg 91%
01:00 +8°C° 0 mm 0 mps 754 mmHg 91%
02:00 +7°C° 0 mm 0 mps 754 mmHg 92%
03:00 +7°C° 0 mm 0 mps 754 mmHg 94%
04:00 +6°C° 0 mm 0 mps 754 mmHg 95%
05:00 +7°C° 0 mm 0 mps 754 mmHg 92%
06:00 +8°C° 0 mm 0 mps 755 mmHg 89%
07:00 +10°C° 0 mm 1 mps 755 mmHg 86%
08:00 +11°C° 0 mm 1 mps 755 mmHg 80%
09:00 +12°C° 0 mm 1 mps 756 mmHg 74%
10:00 +14°C° 0 mm 1 mps 756 mmHg 68%
11:00 +14°C° 0 mm 2 mps 756 mmHg 66%
12:00 +15°C° 0 mm 2 mps 756 mmHg 63%
13:00 +15°C° 0 mm 2 mps 756 mmHg 61%
14:00 +15°C° 0 mm 2 mps 757 mmHg 62%
15:00 +15°C° 0 mm 2 mps 757 mmHg 64%
16:00 +15°C° 0 mm 2 mps 757 mmHg 65%
17:00 +13°C° 0 mm 1 mps 757 mmHg 73%
18:00 +12°C° 0 mm 1 mps 758 mmHg 80%
19:00 +10°C° 0 mm 1 mps 758 mmHg 88%
20:00 +10°C° 0 mm 1 mps 758 mmHg 90%
21:00 +8°C° 0 mm 0 mps 758 mmHg 93%
22:00 +7°C° 0 mm 0 mps 759 mmHg 95%
23:00 +7°C° 0 mm 0 mps 759 mmHg 95%

26 Septiembre, Sábado

Tiempo Temperatura Precipitaciones Viento Presión Humedad
00:00 +6°C° 0 mm 0 mps 759 mmHg 96%
01:00 +6°C° 0 mm 0 mps 758 mmHg 96%
02:00 +7°C° 0 mm 1 mps 758 mmHg 97%
03:00 +6°C° 0 mm 1 mps 758 mmHg 97%
04:00 +6°C° 0 mm 1 mps 758 mmHg 98%
05:00 +7°C° 0 mm 1 mps 758 mmHg 95%
06:00 +8°C° 0 mm 1 mps 758 mmHg 92%
07:00 +9°C° 0 mm 1 mps 758 mmHg 89%
08:00 +11°C° 0 mm 1 mps 758 mmHg 77%
09:00 +14°C° 0 mm 1 mps 758 mmHg 65%
10:00 +18°C° 0 mm 1 mps 757 mmHg 53%
11:00 +18°C° 0 mm 2 mps 757 mmHg 50%
12:00 +19°C° 0 mm 2 mps 757 mmHg 47%
13:00 +20°C° 0 mm 2 mps 757 mmHg 44%
14:00 +19°C° 0 mm 2 mps 756 mmHg 48%
15:00 +18°C° 0 mm 2 mps 756 mmHg 52%
16:00 +18°C° 0 mm 2 mps 756 mmHg 55%
17:00 +16°C° 0 mm 2 mps 756 mmHg 64%
18:00 +13°C° 0 mm 2 mps 756 mmHg 73%
19:00 +10°C° 0 mm 2 mps 757 mmHg 82%
20:00 +9°C° 0 mm 2 mps 757 mmHg 85%
21:00 +8°C° 0 mm 2 mps 756 mmHg 88%
22:00 +7°C° 0 mm 2 mps 756 mmHg 92%
23:00 +8°C° 0 mm 1 mps 756 mmHg 92%

27 Septiembre, Domingo

Tiempo Temperatura Precipitaciones Viento Presión Humedad
00:00 +7°C° 0 mm 1 mps 756 mmHg 93%
01:00 +7°C° 0 mm 1 mps 755 mmHg 94%
02:00 +6°C° 0 mm 1 mps 755 mmHg 95%
03:00 +6°C° 0 mm 1 mps 755 mmHg 95%
04:00 +5°C° 0 mm 1 mps 755 mmHg 96%
05:00 +6°C° 0 mm 1 mps 755 mmHg 92%
06:00 +7°C° 0 mm 1 mps 755 mmHg 88%
07:00 +8°C° 0 mm 1 mps 755 mmHg 84%
08:00 +11°C° 0 mm 1 mps 755 mmHg 73%
09:00 +14°C° 0 mm 1 mps 754 mmHg 62%
10:00 +18°C° 0 mm 1 mps 754 mmHg 52%
11:00 +19°C° 0 mm 1 mps 754 mmHg 49%
12:00 +20°C° 0 mm 1 mps 753 mmHg 46%
13:00 +21°C° 0 mm 1 mps 753 mmHg 43%
14:00 +20°C° 0 mm 1 mps 753 mmHg 46%
15:00 +20°C° 0 mm 1 mps 752 mmHg 49%
16:00 +19°C° 0 mm 1 mps 752 mmHg 52%
17:00 +15°C° 0 mm 1 mps 752 mmHg 62%
18:00 +13°C° 0 mm 1 mps 752 mmHg 72%
19:00 +10°C° 0 mm 1 mps 753 mmHg 81%
20:00 +10°C° 0 mm 1 mps 752 mmHg 83%
21:00 +9°C° 0 mm 1 mps 752 mmHg 84%
22:00 +8°C° 0 mm 1 mps 752 mmHg 86%
23:00 +8°C° 0 mm 1 mps 752 mmHg 87%

28 Septiembre, Lunes

Tiempo Temperatura Precipitaciones Viento Presión Humedad
00:00 +7°C° 0 mm 1 mps 752 mmHg 89%
01:00 +6°C° 0 mm 0 mps 751 mmHg 90%
02:00 +6°C° 0 mm 0 mps 751 mmHg 91%
03:00 +6°C° 0 mm 0 mps 751 mmHg 91%
04:00 +6°C° 0 mm 0 mps 751 mmHg 92%
05:00 +6°C° 0 mm 0 mps 751 mmHg 88%
06:00 +7°C° 0 mm 0 mps 751 mmHg 84%
07:00 +8°C° 0 mm 0 mps 751 mmHg 80%
08:00 +10°C° 0 mm 0 mps 751 mmHg 71%
09:00 +13°C° 0 mm 1 mps 750 mmHg 62%
10:00 +15°C° 0 mm 2 mps 750 mmHg 53%
11:00 +16°C° 0 mm 2 mps 750 mmHg 53%
12:00 +16°C° 0 mm 3 mps 750 mmHg 52%
13:00 +17°C° 0 mm 4 mps 750 mmHg 52%
14:00 +15°C° 0.1 mm 4 mps 750 mmHg 58%
15:00 +14°C° 0.1 mm 4 mps 750 mmHg 64%
16:00 +13°C° 0.1 mm 3 mps 751 mmHg 70%
17:00 +11°C° 0.3 mm 3 mps 751 mmHg 78%
18:00 +9°C° 0.3 mm 3 mps 751 mmHg 86%
19:00 +7°C° 0.3 mm 2 mps 752 mmHg 94%
20:00 +5°C° 1.5 mm 3 mps 752 mmHg 95%
21:00 +4°C° 1.5 mm 3 mps 753 mmHg 96%
22:00 +4°C° 1.5 mm 3 mps 753 mmHg 97%
23:00 +4°C° 0.6 mm 2 mps 753 mmHg 96%
Mostrar más